Location: Brookfield Center
(41.2406°N, 80.5579°W)
Time: 06:05:42
(UTC+00:00)

Meteor 2-1 Rocket - Pass Details

Date: 18 January 2020
Orbit: 827 x 909 km, 81.3° (Epoch: 24 February)

Event Time Altitude Azimuth Distance (km) Brightness Sun altitude
Rises 00:12:51 0° 347° (NNW) 3,378 7.4 -20.9°
Reaches altitude 10° 00:15:16 10° 345° (NNW) 2,439 6.7 -21.3°
Maximum altitude 00:20:44 68° 264° (W) 891 4.4 -22.4°
Drops below altitude 10° 00:26:12 10° 182° (S) 2,438 6.7 -23.4°
Sets 00:28:37 0° 180° (S) 3,377 7.4 -23.8°
